カタログに戻る

YAOGAN-30 AE

運用中軍事VLEO
NORAD 49028·PAYLOAD·🇨🇳 China

打ち上げ Jul 19, 2021 から Xichang Satellite Launch Center

Loading…

次のパス (今後24時間)

TLE

最新Source: Space-Track

元期: Sep 14, 2026, 15:37 UTC

1 49028U 21065C   26257.65116626  .00001658  00000-0  12273-3 0  9990
2 49028  34.9929  87.3734 0001022 281.7129  78.3465 15.03049815282098

AllMySatでYAOGAN-30 AEをリアルタイム追跡

Download on the App Store